Regional Weather Roundup
Issued by NWS Huntsville, AL

Home | Current Version | Previous Version | Text Only | Print | Product List | Glossary On
Versions: 1 2 3 4 5 6 7 8 9 10 11 12 13 14 15 16 17 18 19 20 21 22 23 24 25 26 27 28 29 30 31 32 33 34 35 36 37 38 39 40 41 42 43 44 45 46 47 48 49 50
000
ASUS44 KHUN 041710
RWRHUN

WEATHER ROUNDUP FOR THE TENNESSEE VALLEY
NATIONAL WEATHER SERVICE HUNTSVILLE AL
1200 PM CDT MON MAY 04 2015

ALZ001>004-041800-
NORTHWEST ALABAMA

CITY           SKY/WX    TMP DP  RH WIND       PRES   REMARKS
COURTLAND HCN    N/A     79 N/A N/A SW7         N/A
BANKHEAD NF      N/A     80  54  39 W3          N/A
RUSSELLVILLE     N/A     77 N/A N/A MISG        N/A
SHOALS AIRPORT MOSUNNY   80  54  40 SW6       30.28F
SHOALS TVA RES   N/A     79 N/A N/A MISG        N/A
$$

ALZ005>007-016-041800-
NORTH CENTRAL ALABAMA

CITY           SKY/WX    TMP DP  RH WIND       PRES   REMARKS
DECATUR AP       N/A     78  60  53 MISG      30.29F
HUNTSVILLE AP  MOSUNNY   80  55  42 NW5       30.29F
HUN NWS/UAH      N/A     79  52  39 SW5         N/A
MERIDIANVILLE  CLOUDY    77  48  36 W7        30.30S
REDSTONE ARSN  MOSUNNY   77  56  48 VRB3      30.28F
VINEMONT AP    FAIR      76  54  46 SW5       30.32F
$$

ALZ008>010-041800-
NORTHEAST ALABAMA

CITY           SKY/WX    TMP DP  RH WIND       PRES   REMARKS
ALBERTVILLE    SUNNY     77  61  57 W7        30.30F
FORT PAYNE     SUNNY     77  43  29 SW8       30.30F
SCOTTSBORO HCN   N/A     77 N/A N/A MISG        N/A
VALLEY HEAD      N/A     75 N/A N/A MISG        N/A
$$

TNZ076-096-097-041800-
SOUTHEASTERN MIDDLE TENNESSEE

CITY           SKY/WX    TMP DP  RH WIND       PRES   REMARKS
TULLAHOMA      SUNNY     75  50  41 SW9       30.31S
WINCHESTER     MOSUNNY   79  52  38 SW6       30.30F
$$

...SURROUNDING SITES...

CITY           SKY/WX    TMP DP  RH WIND       PRES   REMARKS
ATLANTA        PTSUNNY   79  48  33 VRB5      30.32S
ANNISTON       MOSUNNY   78  55  44 VRB3      30.30F
BIRMINGHAM     PTSUNNY   77  53  43 VRB5      30.31S
CHATTANOOGA    MOSUNNY   79  52  38 VRB5      30.30F
CORINTH        FAIR      79  52  38 S10       30.25F
DALTON         SUNNY     75  52  43 S5        30.31F
GADSDEN        SUNNY     79  54  41 S6        30.29F
GOLDEN TRNGL   MOSUNNY   79  55  44 S7        30.26F
HALEYVILLE       N/A     78  52  40 MISG      30.32S
JACKSON TN     SUNNY     81  58  45 S7        30.24S
LEWISBURG      FAIR      79  53  40 VRB7      30.28S
MEMPHIS        MOSUNNY   81  60  48 SW10      30.23S
NASHVILLE      MOSUNNY   81  52  36 W10       30.26F
OXFORD MS      LGT RAIN  77  48  36 S8        30.26F
ROME           MOSUNNY   94  51  23 VRB5      30.30S HX  91
SAVANNAH       SUNNY     79  32  18 W8        30.27S
TUPELO         SUNNY     79  49  34 S10       30.25F
TUSCALOOSA     SUNNY     80  56  43 VRB6      30.27F
$$

...GULF COAST WEATHER...

CITY           SKY/WX    TMP DP  RH WIND       PRES   REMARKS
GULFPORT       PTSUNNY   78  64  61 E18       30.21S
PASCAGOULA     SUNNY     82  59  45 SE12G23   30.22S
MOBILE         PTSUNNY   80  60  50 SE17G24   30.24S
GULF SHORES    PTSUNNY   77  67  72 SE17G25   30.24S
PENSACOLA      MOSUNNY   79  66  64 SE16      30.24S
DESTIN         SUNNY     79  66  64 SE10      30.25S
PANAMA CITY    MOSUNNY   82  53  36 VRB7      30.24F
APPALACHICOLA  SUNNY     82  65  56 E10       30.25F
$$




USA.gov is the U.S. government's official web portal to all federal, state and local government web resources and services.